TimeCDT,TemperatureF,Dew PointF,Humidity,Sea Level PressureIn,VisibilityMPH,Wind Direction,Wind SpeedMPH,Gust SpeedMPH,PrecipitationIn,Events,Conditions,WindDirDegrees,DateUTC
12:53 AM,28.0,10.9,49,30.30,10.0,Calm,Calm,-,N/A,,Clear,0,2014-03-26 05:53:00
1:53 AM,28.0,10.9,49,30.31,10.0,Calm,Calm,-,N/A,,Clear,0,2014-03-26 06:53:00
2:53 AM,27.0,10.9,51,30.31,10.0,Calm,Calm,-,N/A,,Clear,0,2014-03-26 07:53:00
3:53 AM,25.0,10.9,55,30.32,10.0,Calm,Calm,-,N/A,,Clear,0,2014-03-26 08:53:00
4:53 AM,24.1,10.9,57,30.34,10.0,WNW,4.6,-,N/A,,Clear,290,2014-03-26 09:53:00
5:53 AM,23.0,10.9,60,30.37,10.0,WNW,3.5,-,N/A,,Clear,290,2014-03-26 10:53:00
6:53 AM,19.9,10.9,68,30.39,10.0,Calm,Calm,-,N/A,,Clear,0,2014-03-26 11:53:00
7:53 AM,26.1,14.0,60,30.40,10.0,Calm,Calm,-,N/A,,Clear,0,2014-03-26 12:53:00
8:53 AM,30.0,14.0,51,30.42,10.0,NE,8.1,-,N/A,,Clear,50,2014-03-26 13:53:00
9:53 AM,30.9,10.0,42,30.44,10.0,Calm,Calm,-,N/A,,Clear,0,2014-03-26 14:53:00
10:53 AM,35.1,9.0,34,30.43,10.0,Variable,3.5,-,N/A,,Clear,0,2014-03-26 15:53:00
11:53 AM,36.0,10.0,34,30.41,10.0,Variable,4.6,-,N/A,,Clear,0,2014-03-26 16:53:00
12:53 PM,37.9,7.0,28,30.39,10.0,Variable,5.8,-,N/A,,Clear,0,2014-03-26 17:53:00
1:53 PM,42.1,7.0,24,30.36,10.0,Variable,3.5,-,N/A,,Clear,0,2014-03-26 18:53:00
2:53 PM,42.1,5.0,22,30.33,10.0,South,4.6,-,N/A,,Clear,170,2014-03-26 19:53:00
3:53 PM,43.0,5.0,21,30.29,10.0,Calm,Calm,-,N/A,,Clear,0,2014-03-26 20:53:00
4:53 PM,45.0,6.1,20,30.27,10.0,North,-9999.0,-,N/A,,Clear,0,2014-03-26 21:53:00
5:53 PM,45.0,6.1,20,30.27,10.0,SSW,5.8,-,N/A,,Clear,200,2014-03-26 22:53:00
6:53 PM,44.1,7.0,22,30.26,10.0,SSW,3.5,-,N/A,,Clear,200,2014-03-26 23:53:00
7:53 PM,37.9,12.9,36,30.24,10.0,ESE,4.6,-,N/A,,Clear,120,2014-03-27 00:53:00
8:53 PM,36.0,15.1,43,30.25,10.0,Calm,Calm,-,N/A,,Clear,0,2014-03-27 01:53:00
9:53 PM,36.0,18.0,48,30.25,10.0,ESE,3.5,-,N/A,,Clear,120,2014-03-27 02:53:00
10:53 PM,34.0,19.0,54,30.24,10.0,Calm,Calm,-,N/A,,Clear,0,2014-03-27 03:53:00
11:53 PM,36.0,16.0,44,30.23,10.0,Calm,Calm,-,N/A,,Clear,0,2014-03-27 04:53:00